TIROS 8

Satellite information

Favourite Embed

Satellite Type and Status

PAYLOADIN ORBIT

Key statistics

Satellite TIROS 8 at a glance.

Uptime

22639

Days in orbit

Revolutions

≈ 14.7

Per day

Orbit

LEO

Low Earth Orbit

Inclination

58.5

Latest

Satellite identification and parameters

Extended collection of information and parameters for TIROS 8.

Object identification

Identified? True

Debris? False

Object name: TIROS 8

International designator: 1963-054A

Object number (NORAD): 716

Object ID (CCSDS): 716

Country: UNITED STATES OF AMERICA (US)

Current information (Y/N): Y

RCS size: MEDIUM

Orbital parameters

Period: 97.766 minutes

Inclination: 58.4955 deg

SMA: 7029.966 km

Apoapsis: 669.539 km

Periapsis: 634.123 km

RAAN: 4.4471 deg

Eccentricy: 0.00251895

Argument of periapsis: 35.9263 deg

Mean anomaly: 324.3464 deg

Mean motion: 14.72898954 rev/day

Mean motion (dot): 0.00000952 rev/day2

B* drag term: 0.00017641279 1/REarth

Two-line elements (TLE)

Creation date: Dec. 14, 2025, 3:07 a.m.

Reference frame: TEME

Reference center: EARTH

Epoch: Dec. 13, 2025, 9:42 a.m. UTC

TLE line 0: 0 TIROS 8

TLE line 1: 1 00716U 63054A 25347.40476986 .00000952 00000-0 17641-3 0 9995

TLE line 2: 2 00716 58.4955 4.4471 0025189 35.9263 324.3464 14.72898954288343

Live tracking on map

Real-time ground track for satellite TIROS 8.

In-orbit conjunctions

A list of the most updated potential collisions computed for object TIROS 8.

Target Orbit TCA Probability of collision Miss distance Type
CZ-6A DEB SSO 2025-09-14 08:24:25 0.000148643 585.0 (m) DEBRIS
CZ-6A DEB LEO 2025-01-15 04:57:16 0.0002048026 283.0 (m) DEBRIS
CZ-6A DEB SSO 2024-11-11 11:17:30 0.0002801466 162.0 (m) DEBRIS
COSMOS 2251 DEB LEO 2024-11-03 13:16:14 0.0001737071 657.0 (m) DEBRIS
FENGYUN 1C DEB SSO 2024-09-25 21:38:38 0.001724315 653.0 (m) DEBRIS

Associated space launch

The KH-4 (Keyhole-4) was fourth version in the Corona-program to build an optical reconnaissance satellite. KH-4 24 also carried the RM 5 radiometer payload for background measurements for the MIDAS program.

TIROS 8 was lifted into orbit during the mission ‘Thor SLV-2A Agena D | KH-4 26’, on board a Thor SLV-2A Agena D space rocket.

The launch took place on Dec. 21, 1963, 9:45 p.m. from Space Launch Complex 2W.

For more information about the launch, click the button.

Launch to space Thor SLV-2A Agena D | KH-4 26
Thor SLV-2A Agena D | KH-4 26

Agency: N/A

Status: Launch Successful

Launch date: Dec. 21, 1963, 9:45 p.m. UTC

Rocket: Thor SLV-2A Agena D

Launch pad: Space Launch Complex 2W

Location: Vandenberg SFB, CA, USA

...

Latest news about this satellite

There are no fresh news available about this satellite. Check back as we update our databases every day.


Newsletter sign-up

Weekly statistics, charts and insights to help you stay on top of the space industry.